Regional Weather Roundup
Issued by NWS

Home | Current Version | Previous Version | Text Only | Print | Product List | Glossary Off
Versions: 1 2 3 4 5 6 7 8 9 10 11 12 13 14 15 16 17 18 19 20 21 22 23 24 25 26 27 28 29 30 31 32 33 34 35 36 37 38 39 40 41 42 43 44 45 46 47 48 49 50

000
ASUS43 KFSD 241310
RWRSD

WEATHER ROUNDUP FOR SOUTH DAKOTA
NATIONAL WEATHER SERVICE SIOUX FALLS SD
800 AM CDT MON APR 24 2017

NOTE: "FAIR" INDICATES FEW OR NO CLOUDS BELOW 12,000 FEET WITH NO
SIGNIFICANT WEATHER AND/OR OBSTRUCTIONS TO VISIBILITY.


SDZ001>005-009-010-012>017-241400-
NORTHWEST AND NORTH CENTRAL SOUTH DAKOTA

CITY           SKY/WX    TMP DP  RH WIND       PRES   REMARKS
BUFFALO          N/A     35  34  96 NW6       29.57R
FAITH            N/A     32  32 100 N15       29.62R WCI  22
MOBRIDGE       LGT RAIN  38  33  82 N13       29.58R
$$

SDZ012>016-024>037-041>051-057-063-072>074-241400-
SOUTHWEST AND SOUTH CENTRAL SOUTH DAKOTA

CITY           SKY/WX    TMP DP  RH WIND       PRES   REMARKS
RAPID CTY ARPT FOG       37  36  96 N18       29.61R VSB 1/4
PIERRE         PTSUNNY   41  37  86 NW18      29.55R
CUSTER         CLOUDY    43  32  65 CALM      29.61S
ELLSWORTH AFB  FOG       37  37 100 N15       29.61  VSB 1/4
PHILIP         CLOUDY    38  36  92 N10       29.59F
PINE RIDGE     PTSUNNY   43  41  93 NE3       29.60R
SPEARFISH      FOG       39  39 100 NW6       29.65S VSB 1/4
WINNER         FAIR      55  38  52 S18       29.51S
$$

SDZ004>011-016>023-039-040-241400-
NORTHEAST SOUTH DAKOTA

CITY           SKY/WX    TMP DP  RH WIND       PRES   REMARKS
ABERDEEN       CLOUDY    41  36  82 NE7       29.54F
WATERTOWN      CLOUDY    50  36  58 S17       29.58F
BROOKINGS      CLOUDY    50  36  58 S15       29.62F
SISSETON         N/A     48  41  76 SE6       29.56F
$$

SDZ017-020-022-023-036>040-048>070-241400-
SOUTHEAST SOUTH DAKOTA

CITY           SKY/WX    TMP DP  RH WIND       PRES   REMARKS
SIOUX FALLS    CLOUDY    53  37  54 S18G30    29.64F
HURON          CLOUDY    52  38  58 S13G23    29.53F
CHAMBERLAIN    CLOUDY    55  40  57 SE8       29.53R
MITCHELL       CLOUDY    53  38  56 S14       29.57S
YANKTON        CLOUDY    54  34  47 S14G23    29.62S
$$

ABBREVIATIONS USED IN REMARKS
   TC - TEMPERATURE IN CELSIUS
  WCI - WIND CHILL INDEX
   HX - HEAT INDEX
  VSB - VISIBILITY





USA.gov is the U.S. government's official web portal to all federal, state and local government web resources and services.